Location: Poughquag
(41.6090°N, 73.6820°W)
Time: 13:48:29
(UTC-04:00)

DIWATA 2B (PO-101) - Pass Details

Date: 02 June 2024
Orbit: 574 x 588 km, 98.1° (Epoch: 14 June)

Event Time Altitude Azimuth Distance (km) Brightness Sun altitude
Rises 02:58:08 0° 112° (ESE) 2,785 ? -19.8°
Reaches altitude 10° 03:02:04 10° 74° (ENE) 1,890 ? -19.5°
Maximum altitude 03:02:55 11° 62° (ENE) 1,853 ? -19.4°
Drops below altitude 10° 03:03:47 10° 49° (NE) 1,892 ? -19.3°
Sets 03:07:43 0° 11° (N) 2,795 ? -18.9°
